Вернуться в каталог

BREEZE-KM R/B

АктивенPO
NORAD 43754·ROCKET BODY·🇷🇺 Russia

Запущен Nov 30, 2018 с Plesetsk Cosmodrome

Loading…

Ближайшие Пролёты (ближайшие 24 часа)

TLE

СвежийSource: Space-Track

Эпоха: Sep 14, 2026, 09:29 UTC

1 43754U 18097D   26257.39547146  .00000004  00000-0 -34727-4 0  9991
2 43754  82.5143  39.5098 0223268  96.7748 265.8812 12.80116704363831

Отслеживайте BREEZE-KM R/B в реальном времени с AllMySat

Download on the App Store